Weather History for Indiana, PA

Change the Weather History Date:

Monday, May 13, 2013

  Actual Average Record
Temperature  
Mean Temperature 40 °F -  
Max Temperature 48 °F 70 °F 105 °F (2000)
Min Temperature 32 °F 45 °F 30 °F (1949)
Degree Days  
Heating Degree Days 25    
Moisture  
Dew Point 30 °F    
Average Humidity 71    
Maximum Humidity 100    
Minimum Humidity 40    
Precipitation  
Precipitation 0.00 in - - ()
Sea Level Pressure  
Sea Level Pressure 30.09 in    
Wind  
Wind Speed 6 mph (WNW)    
Max Wind Speed 15 mph    
Max Gust Speed 21 mph    
Visibility 10 miles    
Events      
Averages and records for this station are not official NWS values.
T = Trace of Precipitation, MM = Missing Value Source: NWS Daily Summary

Daily Weather History Graph

Daily Weather History Graph

Search for Another Location

Airport:

Trip Planner

Search our weather history database for the weather conditions in past years. The results will help you decide how hot, cold, wet, or windy it might be!

Date:

Astronomy

May. 13, 2013 Rise Set
Actual Time 6:01 AM EDT 8:24 PM EDT
Civil Twilight 5:30 AM EDT 8:55 PM EDT
Nautical Twilight 4:52 AM EDT 9:34 PM EDT
Astronomical Twilight 4:09 AM EDT 10:16 PM EDT
Moon 8:45 AM EDT (5/13) 11:32 PM EDT (5/13)
Length of Visible Light 15h 25m
Length of Day
14h 23m
Waxing Crescent, 12% of the Moon is Illuminated
May 13
Waxing Crescent
May 18
First Quarter
May 25
Full
May 31
Last Quarter
Jun 8
New

Hourly Weather History & Observations

Time (EDT) Temp. Windchill Dew Point Humidity Pressure Visibility Wind Dir Wind Speed Gust Speed Precip Events Conditions
12:15 AM 42.8 °F 38.6 °F 30.2 °F 61% 30.02 in 10.0 mi WNW 6.9 mph - N/A   Unknown
12:35 AM 42.8 °F 37.5 °F 30.2 °F 61% 30.03 in 10.0 mi NW 9.2 mph - N/A   Unknown
12:55 AM 39.2 °F 32.5 °F 33.8 °F 81% 30.04 in 10.0 mi NW 10.4 mph 16.1 mph N/A   Unknown
1:15 AM 39.2 °F 34.2 °F 33.8 °F 81% 30.04 in 10.0 mi NW 6.9 mph - N/A   Unknown
1:35 AM 39.2 °F 32.0 °F 33.8 °F 81% 30.04 in 10.0 mi NW 11.5 mph 16.1 mph N/A   Unknown
1:55 AM 37.4 °F 32.8 °F 33.8 °F 87% 30.03 in 10.0 mi NW 5.8 mph - N/A   Unknown
2:15 AM 37.4 °F 32.8 °F 33.8 °F 87% 30.03 in 10.0 mi NW 5.8 mph - N/A   Unknown
2:35 AM 37.4 °F 32.8 °F 35.6 °F 93% 30.03 in 10.0 mi WNW 5.8 mph - N/A   Unknown
2:55 AM 35.6 °F 31.7 °F 35.6 °F 100% 30.03 in 10.0 mi NW 4.6 mph - N/A   Unknown
3:15 AM 35.6 °F 32.8 °F 33.8 °F 93% 30.03 in 10.0 mi WNW 3.5 mph - N/A   Unknown
3:35 AM 35.6 °F 32.8 °F 33.8 °F 93% 30.03 in 10.0 mi West 3.5 mph - N/A   Unknown
3:55 AM 33.8 °F 30.8 °F 33.8 °F 100% 30.04 in 10.0 mi West 3.5 mph - N/A   Unknown
4:15 AM 33.8 °F - 33.8 °F 100% 30.04 in 10.0 mi Calm Calm - N/A   Unknown
4:35 AM 33.8 °F - 33.8 °F 100% 30.04 in 10.0 mi Calm Calm - N/A   Unknown
4:55 AM 33.8 °F - 33.8 °F 100% 30.04 in 10.0 mi Calm Calm - N/A   Unknown
5:15 AM 33.8 °F - 33.8 °F 100% 30.04 in 10.0 mi Calm Calm - N/A   Unknown
5:35 AM 33.8 °F - 33.8 °F 100% 30.04 in 10.0 mi Calm Calm - N/A   Unknown
5:55 AM 32.0 °F - 32.0 °F 100% 30.04 in 10.0 mi Calm Calm - N/A   Unknown
6:15 AM 32.0 °F - 32.0 °F 100% 30.05 in 10.0 mi Calm Calm - N/A   Unknown
6:35 AM 33.8 °F - 33.8 °F 100% 30.05 in 10.0 mi Calm Calm - N/A   Unknown
6:55 AM 33.8 °F - 33.8 °F 100% 30.06 in 10.0 mi Calm Calm - N/A   Unknown
7:15 AM 33.8 °F 30.8 °F 33.8 °F 100% 30.07 in 10.0 mi West 3.5 mph - N/A   Unknown
7:35 AM 35.6 °F 32.8 °F 35.6 °F 100% 30.07 in 10.0 mi WNW 3.5 mph - N/A   Unknown
7:55 AM 37.4 °F 33.8 °F 32.0 °F 81% 30.08 in 10.0 mi WNW 4.6 mph - N/A   Unknown
8:15 AM 37.4 °F 31.4 °F 30.2 °F 75% 30.09 in 10.0 mi WNW 8.1 mph - N/A   Unknown
8:35 AM 39.2 °F 32.5 °F 30.2 °F 70% 30.10 in 10.0 mi NW 10.4 mph - N/A   Unknown
8:55 AM 39.2 °F 33.0 °F 28.4 °F 65% 30.10 in 10.0 mi WNW 9.2 mph - N/A   Unknown
9:15 AM 39.2 °F 30.8 °F 28.4 °F 65% 30.11 in 10.0 mi NW 15.0 mph 18.4 mph N/A   Unknown
9:35 AM 41.0 °F 37.1 °F 30.2 °F 65% 30.11 in 10.0 mi WNW 5.8 mph - N/A   Unknown
9:55 AM 41.0 °F 35.8 °F 28.4 °F 61% 30.11 in 10.0 mi WNW 8.1 mph - N/A   Unknown
10:15 AM 39.2 °F 31.6 °F 30.2 °F 70% 30.12 in 10.0 mi West 12.7 mph - N/A   Unknown
10:35 AM 37.4 °F - 30.2 °F 75% 30.12 in 5.0 mi Calm Calm - N/A   Unknown
10:55 AM 42.8 °F 40.1 °F 30.2 °F 61% 30.12 in 10.0 mi NW 4.6 mph - N/A   Unknown
11:15 AM 41.0 °F 34.7 °F 28.4 °F 61% 30.12 in 10.0 mi NW 10.4 mph - N/A   Unknown
11:35 AM 42.8 °F 36.6 °F 26.6 °F 53% 30.12 in 10.0 mi WNW 11.5 mph 19.6 mph N/A   Unknown
11:55 AM 44.6 °F 38.1 °F 28.4 °F 53% 30.12 in 10.0 mi NW 13.8 mph 19.6 mph N/A   Unknown
12:15 PM 42.8 °F 38.0 °F 28.4 °F 57% 30.13 in 10.0 mi NW 8.1 mph 19.6 mph N/A   Unknown
12:35 PM 44.6 °F 40.7 °F 30.2 °F 57% 30.13 in 10.0 mi WNW 6.9 mph - N/A   Unknown
12:55 PM 44.6 °F 39.7 °F 28.4 °F 53% 30.12 in 10.0 mi NW 9.2 mph - N/A   Unknown
1:15 PM 44.6 °F 40.2 °F 30.2 °F 57% 30.12 in 10.0 mi West 8.1 mph - N/A   Unknown
1:35 PM 44.6 °F 39.7 °F 28.4 °F 53% 30.12 in 10.0 mi WNW 9.2 mph - N/A   Unknown
1:55 PM 44.6 °F 40.2 °F 26.6 °F 49% 30.11 in 10.0 mi NW 8.1 mph 16.1 mph N/A   Unknown
2:15 PM 46.4 °F 41.5 °F 28.4 °F 50% 30.11 in 10.0 mi West 10.4 mph - N/A   Unknown
2:35 PM 46.4 °F 41.5 °F 26.6 °F 46% 30.11 in 10.0 mi WNW 10.4 mph 19.6 mph N/A   Unknown
2:55 PM 46.4 °F 41.9 °F 28.4 °F 50% 30.11 in 10.0 mi WNW 9.2 mph 16.1 mph N/A   Unknown
3:15 PM 46.4 °F 41.1 °F 26.6 °F 46% 30.12 in 10.0 mi NW 11.5 mph 18.4 mph N/A   Unknown
3:35 PM 48.2 °F - 26.6 °F 43% 30.11 in 10.0 mi WNW 11.5 mph 19.6 mph N/A   Unknown
4:35 PM 46.4 °F 42.4 °F 26.6 °F 46% 30.10 in 10.0 mi WNW 8.1 mph - N/A   Unknown
4:55 PM 46.4 °F 42.4 °F 26.6 °F 46% 30.11 in 10.0 mi WNW 8.1 mph 19.6 mph N/A   Unknown
5:15 PM 48.2 °F - 28.4 °F 46% 30.10 in 10.0 mi NNW 8.1 mph - N/A   Unknown
5:35 PM 48.2 °F - 26.6 °F 43% 30.10 in 10.0 mi NNW 9.2 mph 17.3 mph N/A   Unknown
5:55 PM 48.2 °F - 24.8 °F 40% 30.10 in 10.0 mi WNW 9.2 mph 20.7 mph N/A   Unknown
6:15 PM 48.2 °F - 26.6 °F 43% 30.10 in 10.0 mi NNW 10.4 mph - N/A   Unknown
6:35 PM 48.2 °F - 24.8 °F 40% 30.10 in 10.0 mi NW 9.2 mph 16.1 mph N/A   Unknown
6:55 PM 48.2 °F - 26.6 °F 43% 30.10 in 10.0 mi NNW 8.1 mph - N/A   Unknown
7:35 PM 46.4 °F 42.9 °F 26.6 °F 46% 30.11 in 10.0 mi NW 6.9 mph - N/A   Unknown
8:15 PM 44.6 °F - 28.4 °F 53% 30.12 in 10.0 mi Calm Calm - N/A   Unknown
8:35 PM 42.8 °F 41.1 °F 28.4 °F 57% 30.13 in 10.0 mi North 3.5 mph - N/A   Unknown
8:55 PM 42.8 °F - 28.4 °F 57% 30.14 in 10.0 mi Calm Calm - N/A   Unknown
9:15 PM 39.2 °F - 28.4 °F 65% 30.15 in 10.0 mi Calm Calm - N/A   Unknown
9:35 PM 39.2 °F - 30.2 °F 70% 30.16 in 10.0 mi Calm Calm - N/A   Unknown
9:55 PM 37.4 °F - 28.4 °F 70% 30.17 in 10.0 mi Calm Calm - N/A   Unknown
10:15 PM 37.4 °F - 28.4 °F 70% 30.17 in 10.0 mi Calm Calm - N/A   Unknown
10:35 PM 35.6 °F - 30.2 °F 81% 30.17 in 10.0 mi Calm Calm - N/A   Unknown
10:55 PM 33.8 °F - 30.2 °F 87% 30.17 in 10.0 mi Calm Calm - N/A   Unknown
11:15 PM 33.8 °F - 30.2 °F 87% 30.17 in 10.0 mi Calm Calm - N/A   Unknown
11:35 PM 33.8 °F - 30.2 °F 87% 30.17 in 10.0 mi Calm Calm - N/A   Unknown
11:55 PM 32.0 °F - 30.2 °F 93% 30.17 in 10.0 mi Calm Calm - N/A   Unknown